星链-36395(STARLINK-36395)

导读 | 豆包AI

STARLINK-36395是由美国发射的Starlink星链系列卫星,于2026年1月22日发射升空,属于SpaceX公司打造的星链星座网络组成部分。星链项目旨在构建全球卫星互联网,该卫星将为全球偏远地区等提供低延迟、高速率的宽带互联网接入服务,进一步完善星链星座的全球覆盖能力。

基本信息
目录编号:
67554
目录名称:
STARLINK-36395
国际标识:
2026-014Y
轨道中心:
EARTH
卫星名称:
星链-36395
卫星全名:
星链-36395(STARLINK-36395)
卫星状态:
在轨 (已飞行123 天)
发射日期:
2026-01-22 UTC
国别 :
美国 (US)
星等 :
--
轨道信息
数据来源 国际轨道数据
星历时间: 2026-05-25T12:25:43+0800
5小时前
查看轨道信息
半长轴: 6722.275km
偏心率: 0.0001279
轨道倾角: 97.287°
近地点辐角 98.900°
升交点赤经 33.866°
平近点角 261.241°
近地点: 343.278km
远地点: 344.998km
周期: 91.418分钟
每日圈数: 15.751736
详细信息
固有亮度:
5
最大亮度:
2.5
卫星平台:
Starlink V1.0
覆盖范围:
全球
运营商:
太空探索技术公司
运营商所在国:
美国
制造商(研发单位):
太空探索技术公司
制造商所在国:
美国
使用方式:
暂无
卫星简介
Starlink 计划是 SpaceX 推出的全球卫星互联网项目,通过发射低轨道卫星,为全球尤其是偏远地区提供高速、低延迟的互联网服务。自 2019 年起,Starlink 已部署数千颗卫星,旨在缩小全球数字鸿沟,推动互联网普及。该项目还为军事、航空等行业提供通信支持,带来广泛经济效益。
2D轨道图
3D轨道图
轨道高度分析图
轨道倾角分析图
轨道综合分析图
查看轨道综合分析图